Danville, IL

3:03 PM CST on January 18, 2017 (GMT -0600)
Vermilion County

Weather History for KDNV - January, 2013

Change the Weather History Date:

Sunday, January 27, 2013

  Actual Average (KCMI) Record (KCMI)
Temperature  
Mean Temperature 31 °F -  
Max Temperature 42 °F 31 °F 61 °F (1999)
Min Temperature 21 °F 16 °F -11 °F (2003)
Degree Days  
Heating Degree Days 34    
Moisture  
Dew Point 26 °F    
Average Humidity 83    
Maximum Humidity 100    
Minimum Humidity 68    
Precipitation  
Precipitation 0.11 in - - ()
Sea Level Pressure  
Sea Level Pressure 30.19 in    
Wind  
Wind Speed 9 mph (SE)    
Max Wind Speed 18 mph    
Max Gust Speed 23 mph    
Visibility 8 miles    
Events Rain    
Averages and records for this station are not official NWS values.
T = Trace of Precipitation, MM = Missing Value Source: NWS Daily Summary

Daily Weather History Graph

Daily Weather History Graph

Search for Another Location

Airport or City:

Trip Planner

Search our weather history database for the weather conditions in past years. The results will help you decide how hot, cold, wet, or windy it might be!

Date:

Astronomy

Jan. 27, 2013 Rise Set
Actual Time 7:03 AM CST 5:03 PM CST
Civil Twilight 6:34 AM CST 5:32 PM CST
Nautical Twilight 6:01 AM CST 6:05 PM CST
Astronomical Twilight 5:29 AM CST 6:37 PM CST
Moon 5:57 PM CST (1/27) 6:56 AM CST (1/27)
Length of Visible Light 10h 58m
Length of Day
10h 00m
Full, 100% of the Moon is Illuminated
Jan 27
Full
Feb 3
Last Quarter
Feb 10
New
Feb 17
First Quarter
Feb 25
Full

Hourly Weather History & Observations

Time (CST) Temp. Windchill Dew Point Humidity Pressure Visibility Wind Dir Wind Speed Gust Speed Precip Events Conditions
12:15 AM 22.8 °F 15.5 °F 17.2 °F 79% 30.35 in 10.0 mi East 5.8 mph - N/A   Clear
12:35 AM 22.6 °F 14.3 °F 17.1 °F 79% 30.34 in 10.0 mi East 6.9 mph - N/A   Clear
12:55 AM 23.0 °F 14.7 °F 17.2 °F 79% 30.34 in 10.0 mi East 6.9 mph - N/A   Clear
1:15 AM 23.2 °F 16.0 °F 17.6 °F 79% 30.35 in 10.0 mi ESE 5.8 mph - N/A   Scattered Clouds
1:35 AM 23.0 °F 15.8 °F 17.4 °F 79% 30.35 in 10.0 mi ESE 5.8 mph - N/A   Clear
1:55 AM 22.5 °F 14.1 °F 17.2 °F 80% 30.35 in 10.0 mi SE 6.9 mph - N/A   Clear
2:15 AM 22.3 °F 13.9 °F 17.2 °F 81% 30.34 in 10.0 mi SE 6.9 mph - N/A   Clear
2:35 AM 22.3 °F 13.9 °F 17.2 °F 81% 30.34 in 10.0 mi ESE 6.9 mph - N/A   Clear
2:55 AM 22.1 °F 13.7 °F 17.2 °F 82% 30.33 in 10.0 mi ESE 6.9 mph - N/A   Clear
3:15 AM 22.1 °F 13.7 °F 17.1 °F 81% 30.33 in 10.0 mi ESE 6.9 mph - N/A   Clear
3:35 AM 21.9 °F 12.5 °F 17.1 °F 82% 30.32 in 10.0 mi ESE 8.1 mph - N/A   Clear
3:55 AM 22.1 °F 13.7 °F 17.1 °F 81% 30.31 in 10.0 mi ESE 6.9 mph - N/A   Clear
4:15 AM 22.5 °F 14.1 °F 17.2 °F 80% 30.32 in 10.0 mi ESE 6.9 mph - N/A   Clear
4:35 AM 22.6 °F 13.4 °F 17.4 °F 80% 30.31 in 10.0 mi ESE 8.1 mph - N/A   Clear
4:55 AM 22.6 °F 15.3 °F 17.6 °F 81% 30.32 in 10.0 mi ESE 5.8 mph - N/A   Clear
5:15 AM 22.5 °F 16.3 °F 17.6 °F 82% 30.32 in 10.0 mi ESE 4.6 mph - N/A   Clear
5:35 AM 22.5 °F 13.2 °F 17.6 °F 82% 30.31 in 10.0 mi ESE 8.1 mph - N/A   Clear
5:55 AM 23.0 °F 13.1 °F 18.0 °F 81% 30.30 in 10.0 mi ESE 9.2 mph - N/A   Clear
6:15 AM 23.5 °F 13.7 °F 18.3 °F 80% 30.30 in 10.0 mi ESE 9.2 mph - N/A   Clear
6:35 AM 23.9 °F 14.2 °F 18.7 °F 80% 30.30 in 10.0 mi ESE 9.2 mph - N/A   Clear
6:55 AM 24.4 °F 14.9 °F 19.2 °F 81% 30.30 in 10.0 mi ESE 9.2 mph - N/A   Clear
7:15 AM 24.8 °F 16.9 °F 19.6 °F 81% 30.32 in 10.0 mi SSE 6.9 mph - N/A   Clear
7:35 AM 25.7 °F 18.0 °F 20.3 °F 80% 30.31 in 10.0 mi SE 6.9 mph - N/A   Clear
7:55 AM 26.2 °F 17.1 °F 20.5 °F 79% 30.31 in 10.0 mi SSE 9.2 mph - N/A   Clear
8:15 AM 26.6 °F 17.5 °F 20.7 °F 78% 30.31 in 10.0 mi SE 9.2 mph - N/A   Clear
8:35 AM 27.1 °F 18.2 °F 21.0 °F 78% 30.30 in 10.0 mi SE 9.2 mph - N/A   Clear
8:55 AM 27.7 °F 18.8 °F 21.2 °F 77% 30.30 in 10.0 mi SE 9.2 mph - N/A   Clear
9:15 AM 28.4 °F 20.4 °F 21.7 °F 76% 30.31 in 10.0 mi SE 8.1 mph - N/A   Clear
9:35 AM 29.3 °F 19.6 °F 22.1 °F 75% 30.31 in 10.0 mi SSE 11.5 mph - N/A   Clear
9:55 AM 30.2 °F 21.3 °F 22.8 °F 74% 30.31 in 10.0 mi SSE 10.4 mph - N/A   Clear
10:15 AM 31.5 °F 21.8 °F 23.4 °F 72% 30.30 in 10.0 mi SSE 12.7 mph - N/A   Clear
10:35 AM 32.0 °F 23.6 °F 23.7 °F 71% 30.29 in 10.0 mi SE 10.4 mph - N/A   Clear
10:55 AM 32.2 °F 23.2 °F 23.9 °F 72% 30.28 in 10.0 mi SSE 11.5 mph - N/A   Clear
11:15 AM 32.5 °F 23.2 °F 23.9 °F 70% 30.27 in 10.0 mi SE 12.7 mph - N/A   Scattered Clouds
11:35 AM 33.3 °F 24.6 °F 23.9 °F 69% 30.24 in 10.0 mi SE 11.5 mph 17.3 mph N/A   Scattered Clouds
11:55 AM 33.8 °F 27.0 °F 24.3 °F 68% 30.24 in 10.0 mi SE 8.1 mph - N/A   Mostly Cloudy
12:15 PM 33.8 °F 25.3 °F 24.3 °F 68% 30.21 in 10.0 mi SE 11.5 mph - N/A   Mostly Cloudy
12:35 PM 33.8 °F 25.3 °F 24.3 °F 68% 30.19 in 10.0 mi SE 11.5 mph - N/A   Overcast
12:55 PM 34.2 °F 25.7 °F 24.4 °F 68% 30.17 in 10.0 mi SE 11.5 mph 17.3 mph N/A   Mostly Cloudy
1:15 PM 34.2 °F 25.2 °F 24.8 °F 69% 30.16 in 10.0 mi SE 12.7 mph - N/A   Overcast
1:35 PM 34.0 °F 25.5 °F 25.7 °F 72% 30.14 in 10.0 mi SE 11.5 mph - N/A Rain Light Rain
1:55 PM 34.7 °F 25.5 °F 25.7 °F 70% 30.13 in 10.0 mi SE 13.8 mph - N/A Rain Light Rain
2:15 PM 34.3 °F 26.5 °F 26.1 °F 72% 30.13 in 10.0 mi SE 10.4 mph 18.4 mph N/A Rain Light Rain
2:35 PM 33.8 °F 25.3 °F 27.3 °F 77% 30.11 in 7.0 mi SSE 11.5 mph - 0.01 in Rain Light Rain
2:55 PM 34.0 °F 25.5 °F 27.7 °F 78% 30.10 in 7.0 mi SE 11.5 mph - 0.01 in Rain Light Rain
3:15 PM 34.0 °F 26.0 °F 27.9 °F 78% 30.10 in 7.0 mi SSE 10.4 mph - N/A Rain Rain
3:35 PM 33.4 °F 24.8 °F 29.1 °F 84% 30.10 in 4.0 mi SSE 11.5 mph - 0.02 in Rain Light Rain
3:55 PM 33.4 °F 25.4 °F 29.3 °F 85% 30.10 in 5.0 mi SSE 10.4 mph - 0.02 in Rain Light Rain
4:15 PM 33.4 °F 27.3 °F 30.2 °F 88% 30.12 in 4.0 mi SSE 6.9 mph - 0.02 in Rain Rain
4:35 PM 33.4 °F 25.9 °F 31.1 °F 91% 30.10 in 7.0 mi SE 9.2 mph - 0.02 in Rain Light Rain
4:55 PM 33.4 °F 25.9 °F 31.1 °F 91% 30.11 in 7.0 mi SE 9.2 mph - 0.02 in Rain Light Rain
5:15 PM 33.4 °F 25.9 °F 31.6 °F 93% 30.10 in 5.0 mi SE 9.2 mph - 0.02 in Rain Rain
5:35 PM 33.8 °F 25.3 °F 32.0 °F 93% 30.08 in 5.0 mi SE 11.5 mph - 0.04 in Rain Light Rain
5:55 PM 33.8 °F 23.2 °F 32.0 °F 93% 30.05 in 7.0 mi SE 17.3 mph 21.9 mph 0.05 in Rain Light Rain
6:15 PM 34.3 °F 24.6 °F 32.5 °F 93% 30.05 in 7.0 mi SSE 15.0 mph 20.7 mph N/A Rain Light Rain
6:35 PM 34.7 °F 24.7 °F 32.9 °F 93% 30.05 in 7.0 mi SSE 16.1 mph 21.9 mph N/A   Light Drizzle
6:55 PM 34.9 °F 25.7 °F 33.1 °F 93% 30.03 in 7.0 mi SSE 13.8 mph - N/A Rain Light Rain
7:15 PM 35.1 °F 26.4 °F 33.6 °F 94% 30.03 in 7.0 mi SSE 12.7 mph - 0.01 in   Overcast
7:35 PM 35.6 °F 26.6 °F 34.0 °F 94% 30.02 in 5.0 mi SSE 13.8 mph 18.4 mph 0.01 in   Overcast
7:55 PM 35.6 °F 26.6 °F 33.8 °F 93% 30.00 in 5.0 mi SSE 13.8 mph - N/A Rain Light Rain
8:15 PM 36.0 °F 27.1 °F 34.7 °F 95% 30.00 in 5.0 mi SSE 13.8 mph 18.4 mph N/A   Light Drizzle
8:35 PM 36.3 °F 28.9 °F 35.1 °F 95% 30.00 in 4.0 mi SSE 10.4 mph - N/A Rain Light Rain
8:55 PM 36.7 °F 28.4 °F 35.6 °F 96% 29.99 in 4.0 mi SSE 12.7 mph 18.4 mph N/A   Overcast
9:15 PM 37.2 °F 31.2 °F 36.0 °F 95% 29.99 in 4.0 mi SSE 8.1 mph - N/A   Overcast
9:35 PM 38.3 °F 29.7 °F 37.4 °F 97% 29.99 in 3.0 mi South 15.0 mph 18.4 mph N/A   Overcast
9:55 PM 38.8 °F 30.8 °F 37.8 °F 96% 29.99 in 3.0 mi South 13.8 mph 21.9 mph N/A   Overcast
10:15 PM 39.2 °F 30.5 °F 38.3 °F 97% 29.98 in 2.0 mi South 16.1 mph 23.0 mph N/A   Overcast
10:35 PM 39.2 °F 29.8 °F 39.2 °F 100% 29.99 in 1.8 mi South 18.4 mph 23.0 mph N/A Rain Light Rain
10:55 PM 40.1 °F 31.6 °F 39.2 °F 97% 29.98 in 3.0 mi South 16.1 mph 23.0 mph N/A   Overcast
11:15 PM 40.6 °F 33.0 °F 39.7 °F 97% 29.97 in 4.0 mi South 13.8 mph 21.9 mph N/A   Overcast
11:35 PM 41.2 °F 33.0 °F 40.1 °F 96% 29.96 in 5.0 mi South 16.1 mph 23.0 mph N/A   Mostly Cloudy
11:55 PM 42.4 °F 34.4 °F 40.6 °F 93% 29.97 in 5.0 mi South 17.3 mph 23.0 mph N/A   Mostly Cloudy